Location: Asheville, NC
(35.6000°N, 82.5500°W)
Time: 20:28:38
(UTC-04:00)

FO-29 - Pass Details

Date: 17 March 2018
Orbit: 799 x 1322 km, 98.5° (Epoch: 20 June)

Event Time Altitude Azimuth Distance (km) Brightness Sun altitude
Rises 20:07:24 0° 25° (NNE) 4,143 12.6 -6.5°
Reaches altitude 10° 20:10:26 10° 36° (NE) 3,233 11.9 -7.1°
Maximum altitude 20:16:54 30° 95° (E) 2,151 10.7 -8.4°
Drops below altitude 10° 20:23:33 10° 153° (SSE) 3,340 12.0 -9.8°
Sets 20:26:42 0° 164° (SSE) 4,301 12.6 -10.4°
